Jackson, TN

6:49 PM CST on December 05, 2016 (GMT -0600)
McKellar-Sipes Regional

Weather History for KMKL - April, 2013

Change the Weather History Date:

Saturday, April 20, 2013

  Actual Average Record
Temperature  
Mean Temperature 49 °F 61 °F  
Max Temperature 65 °F 73 °F 90 °F (1987)
Min Temperature 33 °F 49 °F 29 °F (1983)
Degree Days  
Heating Degree Days 16 5  
Month to date heating degree days 168 155  
Since 1 July heating degree days 3505 3483  
Cooling Degree Days 0 2  
Month to date cooling degree days 52 26  
Year to date cooling degree days 56 37  
Moisture  
Dew Point 36 °F    
Average Humidity 67    
Maximum Humidity 100    
Minimum Humidity 34    
Precipitation  
Precipitation 0.00 in 0.17 in 1.33 in (1995)
Month to date precipitation 5.98 3.15  
Year to date precipitation 21.77 16.14  
Snow  
Snow 0.00 in 0.00 in - ()
Month to date snowfall 0.0 0.1  
Since 1 July snowfall 1.4 4.7  
Snow Depth 0.00 in    
Sea Level Pressure  
Sea Level Pressure 30.23 in    
Wind  
Wind Speed 4 mph (NNE)    
Max Wind Speed 12 mph    
Max Gust Speed 15 mph    
Visibility 10 miles    
Events      
T = Trace of Precipitation, MM = Missing Value Source: NWS Daily Summary

Daily Weather History Graph

Daily Weather History Graph

Search for Another Location

Airport or City:

Trip Planner

Search our weather history database for the weather conditions in past years. The results will help you decide how hot, cold, wet, or windy it might be!

Date:

Astronomy

Apr. 20, 2013 Rise Set
Actual Time 6:16 AM CDT 7:33 PM CDT
Civil Twilight 5:49 AM CDT 7:59 PM CDT
Nautical Twilight 5:18 AM CDT 8:31 PM CDT
Astronomical Twilight 4:45 AM CDT 9:04 PM CDT
Moon 2:27 PM CDT (4/20) 2:54 AM CDT (4/20)
Length of Visible Light 14h 10m
Length of Day
13h 16m
Waxing Gibbous, 71% of the Moon is Illuminated
Apr 20
Waxing Gibbous
Apr 25
Full
May 2
Last Quarter
May 9
New
May 17
First Quarter

Hourly Weather History & Observations

Time (CDT) Temp. Windchill Dew Point Humidity Pressure Visibility Wind Dir Wind Speed Gust Speed Precip Events Conditions
12:53 AM 39.0 °F 36.8 °F 34.0 °F 82% 30.16 in 10.0 mi SSW 3.5 mph - N/A   Clear
1:53 AM 37.9 °F 33.5 °F 34.0 °F 86% 30.15 in 10.0 mi SSW 5.8 mph - N/A   Clear
2:53 AM 37.0 °F 32.4 °F 33.1 °F 86% 30.16 in 10.0 mi SSW 5.8 mph - N/A   Clear
3:53 AM 36.0 °F 32.1 °F 33.1 °F 89% 30.17 in 10.0 mi SSW 4.6 mph - N/A   Clear
4:53 AM 35.1 °F - 33.1 °F 92% 30.18 in 10.0 mi Calm Calm - N/A   Clear
5:53 AM 34.0 °F - 32.0 °F 92% 30.19 in 10.0 mi Calm Calm - N/A   Clear
6:53 AM 34.0 °F - 34.0 °F 100% 30.22 in 10.0 mi Calm Calm - N/A   Clear
7:53 AM 42.1 °F - 39.0 °F 89% 30.24 in 10.0 mi Calm Calm - N/A   Clear
8:53 AM 50.0 °F - 39.0 °F 66% 30.25 in 10.0 mi Calm Calm - N/A   Clear
9:53 AM 55.9 °F - 36.0 °F 47% 30.26 in 10.0 mi North 4.6 mph - N/A   Clear
10:53 AM 59.0 °F - 36.0 °F 42% 30.27 in 10.0 mi Calm Calm - N/A   Clear
11:53 AM 60.1 °F - 34.0 °F 38% 30.27 in 10.0 mi West 6.9 mph - N/A   Clear
12:53 PM 62.1 °F - 37.9 °F 41% 30.27 in 10.0 mi North 8.1 mph - N/A   Clear
1:53 PM 63.0 °F - 37.0 °F 38% 30.25 in 10.0 mi NNW 9.2 mph - N/A   Clear
2:53 PM 64.0 °F - 37.0 °F 37% 30.24 in 10.0 mi WNW 4.6 mph - N/A   Clear
3:53 PM 62.1 °F - 37.9 °F 41% 30.22 in 10.0 mi NNE 6.9 mph - N/A   Clear
4:53 PM 64.0 °F - 37.0 °F 37% 30.21 in 10.0 mi NNE 5.8 mph - N/A   Clear
5:53 PM 64.0 °F - 35.1 °F 34% 30.21 in 10.0 mi Calm Calm - N/A   Clear
6:53 PM 57.0 °F - 41.0 °F 55% 30.21 in 10.0 mi NE 5.8 mph - N/A   Clear
7:53 PM 54.0 °F - 37.9 °F 55% 30.23 in 10.0 mi East 3.5 mph - N/A   Clear
8:53 PM 50.0 °F - 39.9 °F 68% 30.26 in 10.0 mi Calm Calm - N/A   Clear
9:53 PM 46.9 °F - 39.9 °F 77% 30.28 in 10.0 mi Calm Calm - N/A   Clear
10:53 PM 48.0 °F - 37.9 °F 68% 30.28 in 10.0 mi East 4.6 mph - N/A   Clear
11:53 PM 48.0 °F - 36.0 °F 63% 30.29 in 10.0 mi East 3.5 mph - N/A   Clear